FW8178 Weather Reports


time (UTC)temp
C
wind
direction
speed
KPH
gust
KPH
rain 1hr
cm
rain 24hr
cm
rain mn
cm
humidity
%
barometer
mb
20260508100008 15 316 4.8 8.0 0.03 0.43 0.05 89 1012.6
20260508094511 15 149 3.2 9.7 0.05 0.43 0.05 88 1012.0
20260508093002 14 247 3.2 8.0 0.03 0.41 0.05 88 1012.5
20260508091606 14 316 6.4 16.1 0.03 0.41 0.05 88 1012.6
20260508090104 14 263 11.3 20.9 0.03 0.41 0.05 89 1012.4
20260508084548 13 327 8.0 16.1 0.00 0.38 0.03 88 1012.2
20260508083045 13 321 0.0 12.9 0.00 0.38 0.03 89 1012.0
20260508081549 13 245 0.0 8.0 0.00 0.38 0.03 89 1012.0
20260508080043 13 222 4.8 8.0 0.00 0.38 0.03 89 1011.9
20260508074537 13 306 4.8 9.7 0.00 0.38 0.03 90 1011.5
20260508073043 13 355 4.8 8.0 0.00 0.38 0.03 89 1011.3
20260508071542 14 360 3.2 8.0 0.00 0.38 0.03 89 1011.2
20260508070046 14 278 6.4 11.3 0.00 0.38 0.03 89 1011.2
20260508064534 13 317 0.0 8.0 0.00 0.38 0.03 91 1011.0
20260508063024 13 290 11.3 14.5 0.00 0.38 0.03 91 1011.2
20260508060022 12 279 3.2 8.0 0.00 0.38 0.03 92 1010.7
20260508054512 12 290 3.2 11.3 0.00 0.38 0.03 93 1010.4
20260508053009 12 306 4.8 11.3 0.00 0.38 0.03 93 1010.4
20260508051507 12 284 8.0 14.5 0.00 0.38 0.03 94 1010.5
20260508050035 12 294 3.2 12.9 0.00 0.38 0.03 94 1010.3
20260508044535 12 304 4.8 16.1 0.00 0.38 0.03 94 1010.3
20260508043031 12 285 8.0 16.1 0.00 0.38 0.03 94 1010.0
20260508041531 12 355 6.4 17.7 0.00 0.38 0.03 95 1010.1
20260508040030 12 281 4.8 14.5 0.00 0.38 0.03 95 1010.0
20260508034526 12 161 0.0 3.2 0.00 0.38 0.03 94 1009.7
20260508033021 11 161 0.0 3.2 0.03 0.38 0.03 95 1009.8
20260508031519 11 161 0.0 3.2 0.03 0.38 0.03 94 1010.0
20260508030025 11 161 0.0 3.2 0.03 0.38 0.03 94 1010.1
20260508024522 11 161 1.6 3.2 0.03 0.38 0.03 94 1010.3
20260508023018 11 161 0.0 3.2 0.00 0.36 0.00 94 1010.3
20260508021515 11 161 1.6 4.8 0.00 0.36 0.00 94 1010.4
20260508020010 11 161 0.0 3.2 0.00 0.36 0.36 94 1010.4
20260508014506 11 161 0.0 1.6 0.00 0.36 0.36 94 1010.5
20260508013034 12 161 0.0 1.6 0.00 0.36 0.36 94 1010.5
20260508011541 11 161 1.6 3.2 0.00 0.36 0.36 94 1010.7
20260508010002 11 161 0.0 1.6 0.00 0.36 0.36 94 1010.7
20260508004600 11 161 4.8 6.4 0.00 0.36 0.36 93 1010.9
20260508003059 12 161 3.2 8.0 0.00 0.36 0.36 94 1011.2
20260508001559 12 161 1.6 4.8 0.00 0.36 0.36 94 1011.3
20260508000056 12 161 4.8 6.4 0.00 0.36 0.36 93 1011.4
20260507234551 12 56 0.0 3.2 0.00 0.36 0.36 93 1011.5
20260507233049 12 56 3.2 4.8 0.00 0.36 0.36 92 1011.6
20260507231546 12 243 0.0 3.2 0.00 0.36 0.36 92 1011.8
20260507230043 13 243 0.0 3.2 0.00 0.36 0.36 92 1011.9
20260507224543 13 243 1.6 4.8 0.00 0.36 0.36 92 1011.9
20260507223042 13 241 0.0 3.2 0.00 0.36 0.36 92 1011.9
20260507221537 13 238 1.6 4.8 0.00 0.36 0.36 92 1011.9
20260507220034 13 238 1.6 3.2 0.00 0.36 0.36 92 1011.6
20260507214538 13 238 1.6 4.8 0.00 0.36 0.36 91 1011.4
20260507213043 13 113 1.6 3.2 0.00 0.36 0.36 91 1011.6
20260507211543 13 113 0.0 0.0 0.00 0.36 0.36 91 1011.4
20260507210032 13 113 0.0 1.6 0.00 0.36 0.36 90 1011.4
20260507204529 13 113 1.6 4.8 0.00 0.36 0.36 90 1011.4
20260507203028 14 104 1.6 9.7 0.00 0.36 0.36 90 1011.3
20260507201535 14 130 4.8 11.3 0.00 0.36 0.36 90 1011.3
20260507200032 14 139 4.8 14.5 0.00 0.36 0.36 90 1011.3
20260507194522 14 118 4.8 12.9 0.00 0.36 0.36 90 1010.8
20260507193023 14 154 4.8 12.9 0.00 0.36 0.36 90 1010.6
20260507191522 14 115 8.0 12.9 0.00 0.36 0.36 90 1010.3
20260507190018 15 112 6.4 14.5 0.00 0.36 0.36 90 1010.1
20260507184514 15 103 4.8 12.9 0.05 0.36 0.36 91 1009.9
20260507183015 15 138 6.4 12.9 0.13 0.36 0.36 91 1009.6
20260507181511 15 114 4.8 9.7 0.28 0.36 0.36 91 1009.5
20260507180023 15 67 6.4 12.9 0.28 0.36 0.36 91 1009.5
20260507174516 15 49 1.6 6.4 0.23 0.33 0.33 90 1009.7
20260507173016 15 74 1.6 12.9 0.15 0.23 0.23 89 1009.8
20260507171538 15 71 4.8 12.9 0.03 0.10 0.10 87 1009.6
20260507170048 15 144 4.8 14.5 0.00 0.08 0.08 85 1009.5
20260507164534 16 185 14.5 22.5 0.00 0.08 0.08 83 1009.3
20260507163035 18 309 6.4 16.1 0.00 0.08 0.08 81 1009.1
20260507161532 17 326 6.4 19.3 0.00 0.08 0.08 82 1008.7
20260507160032 17 284 12.9 16.1 0.00 0.08 0.08 85 1008.5
20260507154529 17 288 4.8 12.9 0.00 0.08 0.08 87 1008.6
20260507153029 17 294 8.0 11.3 0.00 0.08 0.08 86 1008.8
20260507151528 17 294 4.8 8.0 0.00 0.08 0.08 87 1008.8
20260507150028 17 239 1.6 4.8 0.03 0.08 0.08 86 1008.8
20260507144525 17 178 1.6 6.4 0.05 0.08 0.08 86 1008.9
20260507143025 16 207 3.2 11.3 0.08 0.08 0.08 87 1008.5
20260507141526 16 227 0.0 8.0 0.08 0.08 0.08 87 1008.4
20260507140026 16 209 6.4 17.7 0.05 0.05 0.05 87 1008.6
20260507134520 16 205 9.7 24.1 0.03 0.03 0.03 85 1008.9
20260507133020 18 159 12.9 17.7 0.00 0.00 0.00 79 1009.1
20260507131518 18 117 11.3 22.5 0.00 0.00 0.00 77 1008.9
20260507130017 19 134 14.5 22.5 0.00 0.00 0.00 72 1009.2
20260507124555 19 129 14.5 25.7 0.00 0.00 0.00 70 1009.1
20260507123047 20 115 14.5 27.4 0.00 0.00 0.00 71 1009.1
20260507121549 20 101 17.7 25.7 0.00 0.00 0.00 69 1009.3
20260507120043 20 124 14.5 25.7 0.00 0.00 0.00 69 1009.6
20260507114541 20 110 17.7 25.7 0.00 0.00 0.00 69 1009.6
20260507113045 19 76 16.1 25.7 0.00 0.00 0.00 72 1009.6
20260507111516 19 104 16.1 25.7 0.00 0.00 0.00 72 1009.8
20260507110008 20 98 14.5 25.7 0.00 0.00 0.00 72 1009.7
20260507104606 20 95 20.9 29.0 0.00 0.00 0.00 71 1009.8
20260507103046 20 96 16.1 27.4 0.00 0.00 0.00 72 1009.9
20260507101530 19 105 17.7 33.8 0.00 0.00 0.00 74 1009.9